• In Lithuania
  • List of Countries
  • For 7 days
  • Water Temperature
  • Satellite Maps
  • Weather Map
  • Weather Widgets
  • user-avatar
    Login

    Hourly Weather Ovoschi

    Today, 20 August, Monday

    Time Temperature Precipitation Wind Pressure Humidity
    00:00 +19°C° 0 mm 3 mps 748 mmHg 34%
    01:00 +19°C° 0 mm 3 mps 748 mmHg 35%
    02:00 +18°C° 0 mm 3 mps 748 mmHg 37%
    03:00 +18°C° 0 mm 3 mps 748 mmHg 38%
    04:00 +17°C° 0 mm 3 mps 748 mmHg 40%
    05:00 +17°C° 0 mm 3 mps 748 mmHg 42%
    06:00 +17°C° 0 mm 3 mps 748 mmHg 43%
    07:00 +19°C° 0 mm 4 mps 748 mmHg 39%
    08:00 +21°C° 0 mm 5 mps 748 mmHg 35%
    09:00 +23°C° 0 mm 6 mps 748 mmHg 32%
    10:00 +24°C° 0 mm 6 mps 748 mmHg 29%
    11:00 +26°C° 0 mm 6 mps 748 mmHg 27%
    12:00 +27°C° 0 mm 6 mps 747 mmHg 24%
    13:00 +28°C° 0 mm 6 mps 747 mmHg 23%
    14:00 +29°C° 0 mm 6 mps 747 mmHg 22%
    15:00 +29°C° 0 mm 6 mps 747 mmHg 21%
    16:00 +29°C° 0 mm 6 mps 746 mmHg 23%
    17:00 +28°C° 0 mm 5 mps 746 mmHg 24%
    18:00 +28°C° 0 mm 4 mps 746 mmHg 26%
    19:00 +26°C° 0 mm 5 mps 746 mmHg 29%
    20:00 +25°C° 0 mm 5 mps 746 mmHg 32%
    21:00 +22°C° 0 mm 5 mps 746 mmHg 34%
    22:00 +21°C° 0 mm 5 mps 746 mmHg 42%
    23:00 +21°C° 0 mm 5 mps 746 mmHg 49%

    Tomorrow, 21 August, Tuesday

    Time Temperature Precipitation Wind Pressure Humidity
    00:00 +20°C° 0 mm 5 mps 746 mmHg 56%
    01:00 +19°C° 0 mm 4 mps 746 mmHg 62%
    02:00 +19°C° 0 mm 4 mps 746 mmHg 68%
    03:00 +18°C° 0 mm 4 mps 746 mmHg 73%
    04:00 +18°C° 0 mm 4 mps 746 mmHg 74%
    05:00 +18°C° 0 mm 4 mps 746 mmHg 75%
    06:00 +18°C° 0 mm 4 mps 746 mmHg 75%
    07:00 +20°C° 0 mm 5 mps 746 mmHg 67%
    08:00 +22°C° 0 mm 5 mps 746 mmHg 58%
    09:00 +24°C° 0 mm 6 mps 746 mmHg 50%
    10:00 +26°C° 0 mm 6 mps 746 mmHg 46%
    11:00 +28°C° 0 mm 6 mps 746 mmHg 43%
    12:00 +29°C° 0 mm 6 mps 745 mmHg 39%
    13:00 +30°C° 0 mm 6 mps 745 mmHg 37%
    14:00 +30°C° 0 mm 6 mps 745 mmHg 35%
    15:00 +32°C° 0 mm 6 mps 744 mmHg 33%
    16:00 +32°C° 0 mm 5 mps 744 mmHg 34%
    17:00 +30°C° 0 mm 5 mps 744 mmHg 35%
    18:00 +30°C° 0 mm 4 mps 744 mmHg 36%
    19:00 +28°C° 0 mm 4 mps 744 mmHg 38%
    20:00 +27°C° 0 mm 4 mps 744 mmHg 40%
    21:00 +26°C° 0 mm 4 mps 745 mmHg 42%
    22:00 +25°C° 0 mm 4 mps 745 mmHg 43%
    23:00 +23°C° 0 mm 4 mps 745 mmHg 45%

    Day after tomorrow, 22 August, Wednesday

    Time Temperature Precipitation Wind Pressure Humidity
    00:00 +22°C° 0 mm 4 mps 744 mmHg 47%
    01:00 +22°C° 0 mm 3 mps 745 mmHg 50%
    02:00 +21°C° 0 mm 3 mps 745 mmHg 54%
    03:00 +20°C° 0 mm 3 mps 745 mmHg 58%
    04:00 +20°C° 0 mm 3 mps 745 mmHg 62%
    05:00 +20°C° 0 mm 2 mps 745 mmHg 66%
    06:00 +20°C° 0 mm 2 mps 745 mmHg 70%
    07:00 +22°C° 0 mm 3 mps 745 mmHg 64%
    08:00 +25°C° 0 mm 3 mps 745 mmHg 59%
    09:00 +27°C° 0 mm 3 mps 745 mmHg 53%
    10:00 +28°C° 0 mm 3 mps 745 mmHg 48%
    11:00 +29°C° 0 mm 3 mps 745 mmHg 42%
    12:00 +31°C° 0 mm 2 mps 745 mmHg 37%
    13:00 +32°C° 0 mm 2 mps 744 mmHg 34%
    14:00 +32°C° 0 mm 1 mps 744 mmHg 32%
    15:00 +33°C° 0 mm 1 mps 744 mmHg 29%
    16:00 +33°C° 0 mm 1 mps 744 mmHg 30%
    17:00 +32°C° 0 mm 1 mps 744 mmHg 30%
    18:00 +32°C° 0 mm 1 mps 744 mmHg 31%
    19:00 +31°C° 0 mm 1 mps 744 mmHg 33%
    20:00 +29°C° 0 mm 1 mps 745 mmHg 35%
    21:00 +27°C° 0 mm 2 mps 745 mmHg 38%
    22:00 +27°C° 0 mm 1 mps 745 mmHg 39%
    23:00 +26°C° 0 mm 1 mps 745 mmHg 40%

    23 August, Thursday

    Time Temperature Precipitation Wind Pressure Humidity
    00:00 +26°C° 0 mm 1 mps 745 mmHg 41%
    01:00 +25°C° 0 mm 1 mps 745 mmHg 43%
    02:00 +25°C° 0 mm 1 mps 745 mmHg 44%
    03:00 +24°C° 0 mm 1 mps 745 mmHg 46%
    04:00 +24°C° 0 mm 1 mps 745 mmHg 48%
    05:00 +24°C° 0 mm 1 mps 746 mmHg 49%
    06:00 +24°C° 0 mm 1 mps 746 mmHg 50%
    07:00 +26°C° 0 mm 2 mps 746 mmHg 46%
    08:00 +28°C° 0 mm 2 mps 746 mmHg 41%
    09:00 +30°C° 0 mm 3 mps 746 mmHg 37%
    10:00 +31°C° 0 mm 3 mps 746 mmHg 34%
    11:00 +33°C° 0 mm 4 mps 746 mmHg 30%
    12:00 +34°C° 0 mm 4 mps 746 mmHg 27%
    13:00 +35°C° 0 mm 4 mps 746 mmHg 26%
    14:00 +35°C° 0 mm 4 mps 746 mmHg 25%
    15:00 +35°C° 0 mm 5 mps 746 mmHg 24%
    16:00 +35°C° 0 mm 5 mps 746 mmHg 25%
    17:00 +34°C° 0 mm 4 mps 746 mmHg 27%
    18:00 +33°C° 0 mm 4 mps 746 mmHg 28%
    19:00 +32°C° 0 mm 4 mps 746 mmHg 30%
    20:00 +29°C° 0 mm 4 mps 746 mmHg 32%
    21:00 +28°C° 0 mm 5 mps 746 mmHg 34%
    22:00 +27°C° 0 mm 5 mps 746 mmHg 36%
    23:00 +27°C° 0 mm 5 mps 746 mmHg 38%

    24 August, Friday

    Time Temperature Precipitation Wind Pressure Humidity
    00:00 +26°C° 0 mm 5 mps 746 mmHg 40%
    01:00 +25°C° 0 mm 4 mps 746 mmHg 40%
    02:00 +25°C° 0 mm 4 mps 746 mmHg 41%
    03:00 +23°C° 0 mm 4 mps 746 mmHg 42%
    04:00 +23°C° 0 mm 4 mps 746 mmHg 42%
    05:00 +22°C° 0 mm 4 mps 746 mmHg 43%
    06:00 +22°C° 0 mm 4 mps 746 mmHg 43%
    07:00 +25°C° 0 mm 5 mps 746 mmHg 39%
    08:00 +26°C° 0 mm 6 mps 746 mmHg 36%
    09:00 +28°C° 0 mm 7 mps 747 mmHg 32%
    10:00 +30°C° 0 mm 7 mps 746 mmHg 31%
    11:00 +32°C° 0 mm 7 mps 746 mmHg 29%
    12:00 +33°C° 0 mm 7 mps 746 mmHg 27%
    13:00 +34°C° 0 mm 8 mps 745 mmHg 27%
    14:00 +34°C° 0 mm 8 mps 745 mmHg 27%
    15:00 +34°C° 0 mm 8 mps 745 mmHg 26%
    16:00 +33°C° 0 mm 7 mps 745 mmHg 28%
    17:00 +33°C° 0 mm 7 mps 745 mmHg 30%
    18:00 +32°C° 0 mm 7 mps 745 mmHg 31%
    19:00 +29°C° 0 mm 6 mps 745 mmHg 33%
    20:00 +28°C° 0 mm 6 mps 745 mmHg 34%
    21:00 +27°C° 0 mm 6 mps 745 mmHg 36%
    22:00 +26°C° 0 mm 6 mps 745 mmHg 38%
    23:00 +25°C° 0 mm 5 mps 745 mmHg 41%

    25 August, Saturday

    Time Temperature Precipitation Wind Pressure Humidity
    00:00 +23°C° 0 mm 5 mps 745 mmHg 43%
    01:00 +23°C° 0 mm 5 mps 745 mmHg 45%
    02:00 +22°C° 0 mm 5 mps 745 mmHg 47%
    03:00 +21°C° 0 mm 5 mps 745 mmHg 49%
    04:00 +21°C° 0 mm 5 mps 745 mmHg 48%
    05:00 +21°C° 0 mm 5 mps 746 mmHg 47%
    06:00 +20°C° 0 mm 5 mps 746 mmHg 47%
    07:00 +22°C° 0 mm 6 mps 746 mmHg 42%
    08:00 +24°C° 0 mm 6 mps 746 mmHg 37%
    09:00 +26°C° 0 mm 7 mps 746 mmHg 32%
    10:00 +28°C° 0 mm 7 mps 745 mmHg 30%
    11:00 +29°C° 0 mm 7 mps 745 mmHg 27%
    12:00 +32°C° 0 mm 7 mps 745 mmHg 25%
    13:00 +32°C° 0 mm 7 mps 744 mmHg 24%
    14:00 +33°C° 0 mm 7 mps 744 mmHg 24%
    15:00 +33°C° 0 mm 7 mps 744 mmHg 23%
    16:00 +32°C° 0 mm 7 mps 743 mmHg 24%
    17:00 +32°C° 0 mm 6 mps 743 mmHg 26%
    18:00 +30°C° 0 mm 6 mps 743 mmHg 27%
    19:00 +29°C° 0 mm 6 mps 743 mmHg 29%
    20:00 +27°C° 0 mm 5 mps 743 mmHg 30%
    21:00 +26°C° 0 mm 5 mps 743 mmHg 32%
    22:00 +25°C° 0 mm 5 mps 743 mmHg 33%
    23:00 +23°C° 0 mm 5 mps 743 mmHg 35%
    Show more